﻿測定場所 (Monitoring sites),日付 (Measurement date),時間 (Measurement time),線量率 最大値 (max) μGy/h,線量率 最小値 (min) μGy/h,線量率 平均値 (average) μGy/h,
調布 (Chofu),2013-09-15,23:01～24:00,0.0326,0.0286,0.0310,
調布 (Chofu),2013-09-15,22:01～23:00,0.0335,0.0289,0.0309,
調布 (Chofu),2013-09-15,21:01～22:00,0.0330,0.0290,0.0310,
調布 (Chofu),2013-09-15,20:01～21:00,0.0334,0.0286,0.0310,
調布 (Chofu),2013-09-15,19:01～20:00,0.0325,0.0286,0.0306,
調布 (Chofu),2013-09-15,18:01～19:00,0.0333,0.0286,0.0311,
調布 (Chofu),2013-09-15,17:01～18:00,0.0328,0.0290,0.0310,
調布 (Chofu),2013-09-15,16:01～17:00,0.0334,0.0288,0.0311,
調布 (Chofu),2013-09-15,15:01～16:00,0.0334,0.0287,0.0313,
調布 (Chofu),2013-09-15,14:01～15:00,0.0339,0.0295,0.0315,
調布 (Chofu),2013-09-15,13:01～14:00,0.0342,0.0297,0.0317,
調布 (Chofu),2013-09-15,12:01～13:00,0.0346,0.0310,0.0328,
調布 (Chofu),2013-09-15,11:01～12:00,0.0365,0.0324,0.0343,
調布 (Chofu),2013-09-15,10:01～11:00,0.0376,0.0327,0.0354,
調布 (Chofu),2013-09-15,09:01～10:00,0.0373,0.0326,0.0347,
調布 (Chofu),2013-09-15,08:01～09:00,0.0353,0.0299,0.0326,
調布 (Chofu),2013-09-15,07:01～08:00,0.0353,0.0310,0.0335,
調布 (Chofu),2013-09-15,06:01～07:00,0.0352,0.0301,0.0319,
調布 (Chofu),2013-09-15,05:01～06:00,0.0337,0.0292,0.0314,
調布 (Chofu),2013-09-15,04:01～05:00,0.0344,0.0303,0.0322,
調布 (Chofu),2013-09-15,03:01～04:00,0.0347,0.0304,0.0328,
調布 (Chofu),2013-09-15,02:01～03:00,0.0354,0.0311,0.0330,
調布 (Chofu),2013-09-15,01:01～02:00,0.0355,0.0304,0.0329,
調布 (Chofu),2013-09-15,00:01～01:00,0.0344,0.0301,0.0324,
調布 (Chofu),2013-09-14,23:01～24:00,0.0348,0.0309,0.0329,
調布 (Chofu),2013-09-14,22:01～23:00,0.0343,0.0311,0.0328,
調布 (Chofu),2013-09-14,21:01～22:00,0.0354,0.0303,0.0329,
調布 (Chofu),2013-09-14,20:01～21:00,0.0349,0.0310,0.0329,
調布 (Chofu),2013-09-14,19:01～20:00,0.0350,0.0314,0.0328,
調布 (Chofu),2013-09-14,18:01～19:00,0.0349,0.0313,0.0329,
調布 (Chofu),2013-09-14,17:01～18:00,0.0349,0.0307,0.0328,
調布 (Chofu),2013-09-14,16:01～17:00,0.0350,0.0309,0.0328,
調布 (Chofu),2013-09-14,15:01～16:00,0.0352,0.0311,0.0330,
調布 (Chofu),2013-09-14,14:01～15:00,0.0351,0.0304,0.0328,
調布 (Chofu),2013-09-14,13:01～14:00,0.0347,0.0309,0.0330,
調布 (Chofu),2013-09-14,12:01～13:00,0.0351,0.0300,0.0326,
調布 (Chofu),2013-09-14,11:01～12:00,0.0346,0.0314,0.0330,
調布 (Chofu),2013-09-14,10:01～11:00,0.0350,0.0306,0.0330,
調布 (Chofu),2013-09-14,09:01～10:00,0.0354,0.0314,0.0330,
調布 (Chofu),2013-09-14,08:01～09:00,0.0349,0.0303,0.0332,
調布 (Chofu),2013-09-14,07:01～08:00,0.0352,0.0310,0.0332,
調布 (Chofu),2013-09-14,06:01～07:00,0.0353,0.0308,0.0332,
調布 (Chofu),2013-09-14,05:01～06:00,0.0360,0.0314,0.0334,
調布 (Chofu),2013-09-14,04:01～05:00,0.0349,0.0310,0.0330,
調布 (Chofu),2013-09-14,03:01～04:00,0.0354,0.0309,0.0329,
調布 (Chofu),2013-09-14,02:01～03:00,0.0340,0.0299,0.0324,
調布 (Chofu),2013-09-14,01:01～02:00,0.0342,0.0309,0.0328,
調布 (Chofu),2013-09-14,00:01～01:00,0.0346,0.0309,0.0327,
調布 (Chofu),2013-09-13,23:01～24:00,0.0344,0.0309,0.0329,
調布 (Chofu),2013-09-13,22:01～23:00,0.0342,0.0311,0.0326,
調布 (Chofu),2013-09-13,21:01～22:00,0.0355,0.0311,0.0328,
調布 (Chofu),2013-09-13,20:01～21:00,0.0346,0.0306,0.0327,
調布 (Chofu),2013-09-13,19:01～20:00,0.0346,0.0310,0.0328,
調布 (Chofu),2013-09-13,18:01～19:00,0.0342,0.0313,0.0326,
調布 (Chofu),2013-09-13,17:01～18:00,0.0346,0.0306,0.0325,
調布 (Chofu),2013-09-13,16:01～17:00,0.0345,0.0307,0.0327,
調布 (Chofu),2013-09-13,15:01～16:00,0.0351,0.0302,0.0328,
調布 (Chofu),2013-09-13,14:01～15:00,0.0346,0.0309,0.0328,
調布 (Chofu),2013-09-13,13:01～14:00,0.0341,0.0307,0.0325,
調布 (Chofu),2013-09-13,12:01～13:00,0.0340,0.0306,0.0323,
調布 (Chofu),2013-09-13,11:01～12:00,0.0347,0.0303,0.0326,
調布 (Chofu),2013-09-13,10:01～11:00,0.0352,0.0307,0.0327,
調布 (Chofu),2013-09-13,09:01～10:00,0.0355,0.0318,0.0332,
調布 (Chofu),2013-09-13,08:01～09:00,0.0353,0.0313,0.0332,
調布 (Chofu),2013-09-13,07:01～08:00,0.0356,0.0318,0.0339,
調布 (Chofu),2013-09-13,06:01～07:00,0.0360,0.0324,0.0343,
調布 (Chofu),2013-09-13,05:01～06:00,0.0358,0.0312,0.0332,
調布 (Chofu),2013-09-13,04:01～05:00,0.0343,0.0309,0.0328,
調布 (Chofu),2013-09-13,03:01～04:00,0.0349,0.0311,0.0328,
調布 (Chofu),2013-09-13,02:01～03:00,0.0346,0.0308,0.0327,
調布 (Chofu),2013-09-13,01:01～02:00,0.0354,0.0309,0.0328,
調布 (Chofu),2013-09-13,00:01～01:00,0.0353,0.0310,0.0330,
調布 (Chofu),2013-09-12,23:01～24:00,0.0351,0.0310,0.0325,
調布 (Chofu),2013-09-12,22:01～23:00,0.0347,0.0305,0.0326,
調布 (Chofu),2013-09-12,21:01～22:00,0.0345,0.0311,0.0327,
調布 (Chofu),2013-09-12,20:01～21:00,0.0348,0.0299,0.0325,
調布 (Chofu),2013-09-12,19:01～20:00,0.0342,0.0311,0.0327,
調布 (Chofu),2013-09-12,18:01～19:00,0.0344,0.0308,0.0327,
調布 (Chofu),2013-09-12,17:01～18:00,0.0351,0.0303,0.0327,
調布 (Chofu),2013-09-12,16:01～17:00,0.0347,0.0306,0.0325,
調布 (Chofu),2013-09-12,15:01～16:00,0.0346,0.0298,0.0326,
調布 (Chofu),2013-09-12,14:01～15:00,0.0347,0.0307,0.0325,
調布 (Chofu),2013-09-12,13:01～14:00,0.0351,0.0308,0.0327,
調布 (Chofu),2013-09-12,12:01～13:00,0.0345,0.0301,0.0325,
調布 (Chofu),2013-09-12,11:01～12:00,0.0347,0.0305,0.0325,
調布 (Chofu),2013-09-12,10:01～11:00,0.0341,0.0296,0.0324,
調布 (Chofu),2013-09-12,09:01～10:00,0.0350,0.0309,0.0327,
調布 (Chofu),2013-09-12,08:01～09:00,0.0344,0.0307,0.0328,
調布 (Chofu),2013-09-12,07:01～08:00,0.0355,0.0317,0.0334,
調布 (Chofu),2013-09-12,06:01～07:00,0.0373,0.0318,0.0344,
調布 (Chofu),2013-09-12,05:01～06:00,0.0364,0.0324,0.0347,
調布 (Chofu),2013-09-12,04:01～05:00,0.0375,0.0322,0.0343,
調布 (Chofu),2013-09-12,03:01～04:00,0.0362,0.0316,0.0339,
調布 (Chofu),2013-09-12,02:01～03:00,0.0356,0.0306,0.0334,
調布 (Chofu),2013-09-12,01:01～02:00,0.0351,0.0305,0.0331,
調布 (Chofu),2013-09-12,00:01～01:00,0.0351,0.0309,0.0329,
調布 (Chofu),2013-09-11,23:01～24:00,0.0341,0.0303,0.0324,
調布 (Chofu),2013-09-11,22:01～23:00,0.0339,0.0298,0.0321,
調布 (Chofu),2013-09-11,21:01～22:00,0.0338,0.0307,0.0322,
調布 (Chofu),2013-09-11,20:01～21:00,0.0354,0.0299,0.0323,
調布 (Chofu),2013-09-11,19:01～20:00,0.0345,0.0306,0.0323,
調布 (Chofu),2013-09-11,18:01～19:00,0.0345,0.0300,0.0326,
調布 (Chofu),2013-09-11,17:01～18:00,0.0341,0.0309,0.0325,
調布 (Chofu),2013-09-11,16:01～17:00,0.0341,0.0307,0.0322,
調布 (Chofu),2013-09-11,15:01～16:00,0.0338,0.0299,0.0321,
調布 (Chofu),2013-09-11,14:01～15:00,0.0343,0.0305,0.0322,
調布 (Chofu),2013-09-11,13:01～14:00,0.0341,0.0301,0.0321,
調布 (Chofu),2013-09-11,12:01～13:00,0.0341,0.0299,0.0321,
調布 (Chofu),2013-09-11,11:01～12:00,0.0342,0.0305,0.0322,
調布 (Chofu),2013-09-11,10:01～11:00,0.0354,0.0306,0.0331,
調布 (Chofu),2013-09-11,09:01～10:00,0.0405,0.0324,0.0354,
調布 (Chofu),2013-09-11,08:01～09:00,0.0395,0.0328,0.0355,
調布 (Chofu),2013-09-11,07:01～08:00,0.0379,0.0321,0.0351,
調布 (Chofu),2013-09-11,06:01～07:00,0.0405,0.0329,0.0369,
調布 (Chofu),2013-09-11,05:01～06:00,0.0351,0.0310,0.0327,
調布 (Chofu),2013-09-11,04:01～05:00,0.0359,0.0311,0.0333,
調布 (Chofu),2013-09-11,03:01～04:00,0.0362,0.0312,0.0336,
調布 (Chofu),2013-09-11,02:01～03:00,0.0354,0.0309,0.0333,
調布 (Chofu),2013-09-11,01:01～02:00,0.0385,0.0321,0.0358,
調布 (Chofu),2013-09-11,00:01～01:00,0.0380,0.0324,0.0355,
調布 (Chofu),2013-09-10,23:01～24:00,0.0348,0.0301,0.0326,
調布 (Chofu),2013-09-10,22:01～23:00,0.0342,0.0307,0.0323,
調布 (Chofu),2013-09-10,21:01～22:00,0.0346,0.0309,0.0324,
調布 (Chofu),2013-09-10,20:01～21:00,0.0338,0.0304,0.0322,
調布 (Chofu),2013-09-10,19:01～20:00,0.0351,0.0303,0.0324,
調布 (Chofu),2013-09-10,18:01～19:00,0.0354,0.0304,0.0324,
調布 (Chofu),2013-09-10,17:01～18:00,0.0348,0.0300,0.0322,
調布 (Chofu),2013-09-10,16:01～17:00,0.0346,0.0296,0.0320,
調布 (Chofu),2013-09-10,15:01～16:00,0.0344,0.0305,0.0323,
調布 (Chofu),2013-09-10,14:01～15:00,0.0344,0.0307,0.0327,
調布 (Chofu),2013-09-10,13:01～14:00,0.0345,0.0305,0.0322,
調布 (Chofu),2013-09-10,12:01～13:00,0.0344,0.0310,0.0326,
調布 (Chofu),2013-09-10,11:01～12:00,0.0340,0.0303,0.0323,
調布 (Chofu),2013-09-10,10:01～11:00,0.0342,0.0304,0.0321,
調布 (Chofu),2013-09-10,09:01～10:00,0.0348,0.0309,0.0325,
調布 (Chofu),2013-09-10,08:01～09:00,0.0352,0.0311,0.0325,
調布 (Chofu),2013-09-10,07:01～08:00,0.0348,0.0304,0.0328,
調布 (Chofu),2013-09-10,06:01～07:00,0.0351,0.0311,0.0329,
調布 (Chofu),2013-09-10,05:01～06:00,0.0342,0.0307,0.0325,
調布 (Chofu),2013-09-10,04:01～05:00,0.0342,0.0299,0.0323,
調布 (Chofu),2013-09-10,03:01～04:00,0.0345,0.0308,0.0325,
調布 (Chofu),2013-09-10,02:01～03:00,0.0343,0.0304,0.0323,
調布 (Chofu),2013-09-10,01:01～02:00,0.0345,0.0309,0.0325,
調布 (Chofu),2013-09-10,00:01～01:00,0.0349,0.0301,0.0323,
調布 (Chofu),2013-09-09,23:01～24:00,0.0342,0.0301,0.0323,
調布 (Chofu),2013-09-09,22:01～23:00,0.0339,0.0308,0.0323,
調布 (Chofu),2013-09-09,21:01～22:00,0.0349,0.0306,0.0323,
調布 (Chofu),2013-09-09,20:01～21:00,0.0346,0.0299,0.0323,
調布 (Chofu),2013-09-09,19:01～20:00,0.0342,0.0294,0.0322,
調布 (Chofu),2013-09-09,18:01～19:00,0.0341,0.0305,0.0322,
調布 (Chofu),2013-09-09,17:01～18:00,0.0348,0.0303,0.0322,
調布 (Chofu),2013-09-09,16:01～17:00,0.0346,0.0304,0.0323,
調布 (Chofu),2013-09-09,15:01～16:00,0.0354,0.0303,0.0323,
調布 (Chofu),2013-09-09,14:01～15:00,0.0341,0.0302,0.0320,
調布 (Chofu),2013-09-09,13:01～14:00,0.0335,0.0305,0.0321,
調布 (Chofu),2013-09-09,12:01～13:00,0.0337,0.0299,0.0323,
調布 (Chofu),2013-09-09,11:01～12:00,0.0342,0.0299,0.0322,
調布 (Chofu),2013-09-09,10:01～11:00,0.0339,0.0305,0.0325,
調布 (Chofu),2013-09-09,09:01～10:00,0.0343,0.0301,0.0325,
調布 (Chofu),2013-09-09,08:01～09:00,0.0348,0.0308,0.0328,
調布 (Chofu),2013-09-09,07:01～08:00,0.0344,0.0310,0.0328,
調布 (Chofu),2013-09-09,06:01～07:00,0.0346,0.0298,0.0322,
調布 (Chofu),2013-09-09,05:01～06:00,0.0344,0.0305,0.0323,
調布 (Chofu),2013-09-09,04:01～05:00,0.0339,0.0306,0.0323,
調布 (Chofu),2013-09-09,03:01～04:00,0.0351,0.0300,0.0323,
調布 (Chofu),2013-09-09,02:01～03:00,0.0344,0.0303,0.0322,
調布 (Chofu),2013-09-09,01:01～02:00,0.0346,0.0297,0.0321,
調布 (Chofu),2013-09-09,00:01～01:00,0.0348,0.0300,0.0325,
